| time (UTC) | temp C | wind direction | speed KPH | gust KPH | rain 1hr cm | rain 24hr cm | rain mn cm | humidity % | barometer mb |
| 20260906124604 | 23 | 0 | 0.0 | 0.0 | 0.00 | 1.57 | 0.00 | 94 | 1012.5 |
| 20260906123108 | 23 | 0 | 0.0 | 0.0 | 0.00 | 1.57 | 0.00 | 94 | 1012.4 |
| 20260906121606 | 22 | 0 | 0.0 | 0.0 | 0.00 | 1.57 | 0.00 | 98 | 1012.3 |
| 20260906120112 | 21 | 0 | 0.0 | 0.0 | 0.00 | 1.57 | 0.00 | 99 | 1012.2 |
| 20260906114609 | 21 | 0 | 0.0 | 0.0 | 0.00 | 1.57 | 0.00 | 99 | 1011.9 |
| 20260906113111 | 21 | 0 | 0.0 | 0.0 | 0.00 | 1.57 | 0.00 | 99 | 1011.9 |
| 20260906111605 | 21 | 0 | 0.0 | 0.0 | 0.00 | 1.57 | 0.00 | 99 | 1011.5 |
| 20260906110107 | 21 | 0 | 0.0 | 0.0 | 0.00 | 1.57 | 0.00 | 99 | 1011.4 |
| 20260906104608 | 20 | 0 | 0.0 | 0.0 | 0.00 | 1.57 | 0.00 | 99 | 1011.3 |
| 20260906103105 | 21 | 0 | 0.0 | 0.0 | 0.00 | 1.57 | 0.00 | 99 | 1011.3 |
| 20260906101607 | 21 | 0 | 0.0 | 0.0 | 0.00 | 1.57 | 0.00 | 99 | 1011.3 |
| 20260906100119 | 21 | 0 | 0.0 | 0.0 | 0.00 | 1.57 | 0.00 | 99 | 1011.0 |
| 20260906094616 | 21 | 0 | 0.0 | 0.0 | 0.00 | 1.57 | 0.00 | 99 | 1010.8 |
| 20260906093133 | 21 | 0 | 0.0 | 0.0 | 0.00 | 1.57 | 0.00 | 99 | 1010.4 |
| 20260906091613 | 21 | 0 | 0.0 | 0.0 | 0.00 | 1.57 | 0.00 | 99 | 1010.3 |
| 20260906090107 | 21 | 0 | 0.0 | 0.0 | 0.00 | 1.57 | 0.00 | 99 | 1010.4 |
| 20260906084605 | 21 | 0 | 0.0 | 0.0 | 0.00 | 1.57 | 0.00 | 99 | 1010.3 |
| 20260906083105 | 21 | 0 | 0.0 | 0.0 | 0.00 | 1.57 | 0.00 | 99 | 1010.4 |
| 20260906081609 | 21 | 0 | 0.0 | 0.0 | 0.00 | 1.57 | 0.00 | 99 | 1010.6 |
| 20260906080110 | 21 | 0 | 0.0 | 0.0 | 0.00 | 1.57 | 0.00 | 99 | 1010.6 |
| 20260906074605 | 21 | 0 | 0.0 | 0.0 | 0.00 | 1.57 | 0.00 | 99 | 1010.5 |
| 20260906073109 | 21 | 0 | 0.0 | 0.0 | 0.00 | 1.57 | 0.00 | 99 | 1010.6 |
| 20260906071607 | 21 | 0 | 0.0 | 0.0 | 0.00 | 1.57 | 0.00 | 99 | 1011.0 |
| 20260906070107 | 21 | 0 | 0.0 | 0.0 | 0.00 | 1.57 | 0.00 | 99 | 1011.2 |
| 20260906064606 | 21 | 0 | 0.0 | 0.0 | 0.00 | 1.57 | 0.00 | 99 | 1011.1 |
| 20260906063106 | 21 | 0 | 0.0 | 0.0 | 0.00 | 1.57 | 0.00 | 99 | 1011.2 |
| 20260906061606 | 21 | 0 | 0.0 | 0.0 | 0.00 | 1.57 | 0.00 | 99 | 1011.1 |
| 20260906060108 | 21 | 0 | 0.0 | 0.0 | 0.00 | 1.57 | 0.00 | 99 | 1011.3 |
| 20260906054611 | 21 | 0 | 0.0 | 0.0 | 0.00 | 1.57 | 0.00 | 99 | 1011.2 |
| 20260906053105 | 21 | 0 | 0.0 | 0.0 | 0.00 | 1.57 | 0.00 | 99 | 1011.1 |
| 20260906051609 | 21 | 0 | 0.0 | 0.0 | 0.00 | 1.57 | 0.00 | 99 | 1011.2 |
| 20260906050111 | 21 | 0 | 0.0 | 0.0 | 0.00 | 1.57 | 0.00 | 99 | 1011.1 |
| 20260906044608 | 21 | 0 | 0.0 | 0.0 | 0.00 | 1.57 | 0.00 | 99 | 1011.6 |
| 20260906043105 | 21 | 0 | 0.0 | 0.0 | 0.00 | 1.57 | 0.00 | 99 | 1012.0 |
| 20260906041608 | 21 | 0 | 0.0 | 0.0 | 0.00 | 1.57 | 0.00 | 99 | 1012.0 |
| 20260906040110 | 22 | 0 | 0.0 | 0.0 | 0.00 | 1.57 | 0.00 | 99 | 1011.9 |
| 20260906034608 | 21 | 0 | 0.0 | 0.0 | 0.00 | 1.57 | 1.57 | 99 | 1012.0 |
| 20260906033107 | 22 | 0 | 0.0 | 0.0 | 0.00 | 1.57 | 1.57 | 99 | 1012.1 |
| 20260906031603 | 21 | 0 | 0.0 | 0.0 | 0.00 | 1.57 | 1.57 | 99 | 1012.2 |
| 20260906030108 | 22 | 0 | 0.0 | 0.0 | 0.00 | 1.57 | 1.57 | 99 | 1012.3 |
| 20260906024609 | 22 | 0 | 0.0 | 0.0 | 0.00 | 1.57 | 1.57 | 99 | 1012.0 |
| 20260906023104 | 22 | 0 | 0.0 | 0.0 | 0.00 | 1.57 | 1.57 | 99 | 1012.0 |
| 20260906021606 | 22 | 0 | 0.0 | 0.0 | 0.00 | 1.57 | 1.57 | 99 | 1011.8 |
| 20260906020112 | 22 | 0 | 0.0 | 0.0 | 0.00 | 1.57 | 1.57 | 99 | 1011.8 |
| 20260906014649 | 22 | 0 | 0.0 | 0.0 | 0.05 | 1.57 | 1.57 | 99 | 1011.6 |
| 20260906013108 | 22 | 0 | 0.0 | 0.0 | 0.08 | 1.57 | 1.57 | 99 | 1011.6 |
| 20260906011606 | 22 | 0 | 0.0 | 3.2 | 0.10 | 1.57 | 1.57 | 99 | 1011.6 |
| 20260906010105 | 21 | 0 | 0.0 | 0.0 | 0.10 | 1.57 | 1.57 | 99 | 1011.3 |
| 20260906004614 | 21 | 0 | 0.0 | 0.0 | 0.05 | 1.52 | 1.52 | 99 | 1011.2 |
| 20260906003115 | 21 | 0 | 0.0 | 0.0 | 0.03 | 1.47 | 1.47 | 99 | 1011.3 |
| 20260906001605 | 21 | 0 | 0.0 | 0.0 | 0.00 | 1.47 | 1.47 | 99 | 1011.5 |
| 20260906000108 | 21 | 0 | 0.0 | 0.0 | 0.00 | 1.47 | 1.47 | 98 | 1011.5 |
| 20260905234612 | 21 | 196 | 0.0 | 1.6 | 0.74 | 1.47 | 1.47 | 98 | 1011.4 |
| 20260905233103 | 21 | 0 | 0.0 | 0.0 | 1.42 | 1.47 | 1.47 | 98 | 1011.0 |
| 20260905231608 | 21 | 0 | 0.0 | 0.0 | 1.47 | 1.47 | 1.47 | 98 | 1011.0 |
| 20260905230111 | 21 | 0 | 0.0 | 0.0 | 1.47 | 1.47 | 1.47 | 98 | 1011.4 |
| 20260905224614 | 21 | 0 | 1.6 | 30.6 | 0.71 | 0.71 | 0.71 | 96 | 1013.1 |
| 20260905223105 | 24 | 20 | 17.7 | 51.5 | 0.05 | 0.05 | 0.05 | 80 | 1011.2 |
| 20260905221617 | 33 | 0 | 0.0 | 0.0 | 0.00 | 0.00 | 0.00 | 67 | 1010.3 |
| 20260905220111 | 33 | 0 | 0.0 | 0.0 | 0.00 | 0.00 | 0.00 | 65 | 1010.3 |
| 20260905214610 | 34 | 0 | 0.0 | 4.8 | 0.00 | 0.00 | 0.00 | 64 | 1008.7 |
| 20260905213106 | 35 | 0 | 0.0 | 0.0 | 0.00 | 0.00 | 0.00 | 61 | 1009.6 |
| 20260905211606 | 35 | 0 | 0.0 | 3.2 | 0.00 | 0.00 | 0.00 | 61 | 1010.0 |
| 20260905210107 | 35 | 0 | 0.0 | 4.8 | 0.00 | 0.00 | 0.00 | 61 | 1009.7 |
| 20260905204610 | 35 | 0 | 0.0 | 1.6 | 0.00 | 0.00 | 0.00 | 61 | 1009.6 |
| 20260905203108 | 35 | 0 | 0.0 | 3.2 | 0.00 | 0.00 | 0.00 | 60 | 1009.5 |
| 20260905201627 | 35 | 232 | 0.0 | 6.4 | 0.00 | 0.00 | 0.00 | 61 | 1009.7 |
| 20260905200108 | 35 | 0 | 0.0 | 9.7 | 0.00 | 0.00 | 0.00 | 62 | 1009.9 |
| 20260905194605 | 35 | 276 | 0.0 | 9.7 | 0.00 | 0.00 | 0.00 | 63 | 1009.9 |
| 20260905193114 | 35 | 0 | 0.0 | 1.6 | 0.00 | 0.00 | 0.00 | 62 | 1010.1 |
| 20260905191605 | 35 | 0 | 1.6 | 11.3 | 0.00 | 0.00 | 0.00 | 64 | 1010.2 |
| 20260905190108 | 35 | 0 | 0.0 | 1.6 | 0.00 | 0.00 | 0.00 | 62 | 1010.7 |
| 20260905184612 | 35 | 0 | 0.0 | 11.3 | 0.00 | 0.00 | 0.00 | 64 | 1011.1 |
| 20260905183106 | 34 | 0 | 0.0 | 4.8 | 0.00 | 0.00 | 0.00 | 66 | 1011.3 |
| 20260905181612 | 34 | 263 | 0.0 | 0.0 | 0.00 | 0.00 | 0.00 | 65 | 1011.5 |
| 20260905180129 | 33 | 0 | 0.0 | 9.7 | 0.00 | 0.00 | 0.00 | 65 | 1012.0 |
| 20260905174607 | 33 | 338 | 0.0 | 1.6 | 0.00 | 0.00 | 0.00 | 67 | 1012.1 |
| 20260905173114 | 33 | 0 | 0.0 | 11.3 | 0.00 | 0.00 | 0.00 | 68 | 1012.4 |
| 20260905171607 | 33 | 0 | 0.0 | 11.3 | 0.00 | 0.00 | 0.00 | 68 | 1012.3 |
| 20260905170107 | 33 | 296 | 0.0 | 8.0 | 0.00 | 0.00 | 0.00 | 71 | 1012.4 |
| 20260905164612 | 32 | 0 | 0.0 | 6.4 | 0.00 | 0.00 | 0.00 | 71 | 1012.7 |
| 20260905163109 | 32 | 0 | 0.0 | 6.4 | 0.00 | 0.00 | 0.00 | 71 | 1012.8 |
| 20260905161607 | 32 | 0 | 0.0 | 3.2 | 0.00 | 0.00 | 0.00 | 73 | 1013.1 |
| 20260905160110 | 32 | 0 | 0.0 | 1.6 | 0.00 | 0.00 | 0.00 | 74 | 1013.3 |
| 20260905154619 | 32 | 0 | 0.0 | 1.6 | 0.00 | 0.00 | 0.00 | 74 | 1013.5 |
| 20260905153107 | 31 | 0 | 0.0 | 0.0 | 0.00 | 0.00 | 0.00 | 76 | 1013.7 |
| 20260905151609 | 30 | 0 | 0.0 | 4.8 | 0.00 | 0.00 | 0.00 | 77 | 1013.6 |
| 20260905150104 | 30 | 0 | 0.0 | 8.0 | 0.00 | 0.00 | 0.00 | 80 | 1013.9 |
| 20260905144606 | 30 | 0 | 0.0 | 6.4 | 0.00 | 0.00 | 0.00 | 81 | 1013.8 |
| 20260905143105 | 30 | 0 | 0.0 | 1.6 | 0.00 | 0.00 | 0.00 | 82 | 1014.0 |
| 20260905141606 | 29 | 0 | 0.0 | 8.0 | 0.00 | 0.00 | 0.00 | 84 | 1014.1 |
| 20260905140109 | 28 | 0 | 0.0 | 8.0 | 0.00 | 0.00 | 0.00 | 85 | 1014.1 |
| 20260905134607 | 28 | 0 | 0.0 | 1.6 | 0.00 | 0.00 | 0.00 | 87 | 1014.1 |
| 20260905133106 | 27 | 0 | 0.0 | 8.0 | 0.00 | 0.00 | 0.00 | 89 | 1014.2 |
| 20260905131609 | 27 | 0 | 0.0 | 1.6 | 0.00 | 0.00 | 0.00 | 90 | 1014.2 |
| 20260905130106 | 26 | 0 | 0.0 | 3.2 | 0.00 | 0.00 | 0.00 | 92 | 1014.3 |